Printer-friendly version

IAU Minor Planet Center

Minor Planet Center

MPEC 2007-A38 : 2007 AG2

The following Minor Planet Electronic Circular may be linked-to from your own Web pages, but must not otherwise be redistributed electronically.


Read MPEC 2007-A37 Read MPEC 2007-A39


M.P.E.C. 2007-A38                                Issued 2007 Jan. 10, 20:46 UT

     The Minor Planet Electronic Circulars contain information on unusual
         minor planets and routine data on comets.  They are published
   on behalf of Commission 20 of the International Astronomical Union by the
          Minor Planet Center, Smithsonian Astrophysical Observatory,
                          Cambridge, MA 02138, U.S.A.

             Prepared using the Tamkin Foundation Computer Network

                              MPC@CFA.HARVARD.EDU
          URL http://cfa-www.harvard.edu/iau/mpc.html  ISSN 1523-6714

                                   2007 AG2

Observations:
     K07A02G* C2007 01 07.07468 21 00 17.35 +70 11 18.6          19.2   EA038704
     K07A02G  C2007 01 07.09031 21 00 22.77 +70 10 59.5          19.3   EA038704
     K07A02G  C2007 01 07.10936 21 00 29.10 +70 10 37.9          19.5   EA038704
     K07A02G  C2007 01 07.13470 21 00 37.43 +70 10 08.1          19.8   EA038704
     K07A02G  C2007 01 10.73610 21 20 54.66 +69 01 56.9                 EA038J95
     K07A02G  C2007 01 10.73796 21 20 55.26 +69 01 54.5                 EA038J95
     K07A02G  C2007 01 10.73984 21 20 55.95 +69 01 52.3          18.9 R EA038J95
     K07A02G  C2007 01 10.79392 21 21 13.76 +69 00 47.4          19.3 R EA038J95

Observer details:
704 Lincoln Laboratory ETS, New Mexico.  Observers M. Bezpalko, D. Torres,
    R. Kracke, G. Spitz, J. Kistler.  Measurers J. Stuart, S. Scruggs.  1.0-m
    f/2.15 reflector + CCD.
J95 Great Shefford.  Observer P. Birtwhistle.  0.40-m f/6.0 Schmidt-Cassegrain
    + CCD.

Orbital elements:
2007 AG2                                                 Earth MOID = 0.0946 AU
Epoch 2007 Apr. 10.0 TT = JDT 2454200.5                 MPC
M 357.56967              (2000.0)            P               Q
n   0.91493850     Peri.  254.49999     -0.54944118     +0.79906147
a   1.0508517      Node   336.46722     -0.30906307     -0.46586328
e   0.5305852      Incl.   37.69918     -0.77626955     -0.38009496
P   1.08           H   17.3           G   0.15           U   9
Residuals in seconds of arc
070107 704  0.3+  0.4+    070107 704  1.2-  0.0     070110 J95  0.4+  0.0
070107 704  1.0+  0.4-    070110 J95  0.1+  0.1+    070110 J95  0.1+  0.2+
070107 704  0.4+  0.2+    070110 J95  0.1+  0.1-

Ephemeris:
2007 AG2                 a,e,i = 1.05, 0.53, 38                  q = 0.4933
Date    TT    R. A. (2000) Decl.     Delta      r     Elong.  Phase     V
2007 01 10    21 16.81   +69 16.2    0.740    1.267    93.6    50.8    19.0
2007 01 20    22 11.46   +65 48.9    0.691    1.195    89.3    55.4    18.9
2007 01 30    23 03.55   +61 37.2    0.639    1.116    83.9    61.4    18.8
2007 02 09    23 52.31   +56 09.4    0.584    1.029    77.2    69.2    18.6
2007 02 19    00 36.05   +48 36.9    0.527    0.934    68.5    79.9    18.6

Timothy B. Spahr             (C) Copyright 2007 MPC           M.P.E.C. 2007-A38

Read MPEC 2007-A37 Read MPEC 2007-A39


Our Web policy. Index to the CBAT/MPC/ICQ pages.


Valid HTML 4.01!